Terminal Aerodrome Forecast
Issued by NWS

Home | Current Version | Previous Version | Graphics & Text | Print | Product List | Glossary On
Versions: 1 2 3 4 5 6 7 8 9 10 11 12 13 14
000
FTUS41 KCLE 240533
TAFFDY
TAF
KFDY 240533Z 2406/2506 07005KT P6SM FEW100 SCT250
     FM241500 08012G20KT P6SM SCT100 BKN250
     FM250200 10012KT P6SM BKN050 OVC100=

USA.gov is the U.S. government's official web portal to all federal, state and local government web resources and services.